Change the Weather History Date:

Wednesday, December 19, 2012

  Actual Average Record
Temperature  
Mean Temperature 50 °F -  
Max Temperature 64 °F 51 °F 76 °F (1984)
Min Temperature 36 °F 29 °F 10 °F (1950)
Degree Days  
Heating Degree Days 15    
Moisture  
Dew Point 33 °F    
Average Humidity 52    
Maximum Humidity 80    
Minimum Humidity 33    
Precipitation  
Precipitation 0.00 in - - ()
Sea Level Pressure  
Sea Level Pressure 29.98 in    
Wind  
Wind Speed 3 mph (West)    
Max Wind Speed 7 mph    
Max Gust Speed -    
Visibility 10 miles    
Events      
Averages and records for this station are not official NWS values.
T = Trace of Precipitation, MM = Missing Value Source: NWS Daily Summary

Daily Weather History Graph

Daily Weather History Graph

Search for Another Location

Airport or City:

Trip Planner

Search our weather history database for the weather conditions in past years. The results will help you decide how hot, cold, wet, or windy it might be!

Date:

Astronomy

Dec. 19, 2012 Rise Set
Actual Time 7:30 AM EST 5:15 PM EST
Civil Twilight 7:02 AM EST 5:43 PM EST
Nautical Twilight 6:30 AM EST 6:15 PM EST
Astronomical Twilight 5:59 AM EST 6:46 PM EST
Moon 11:52 AM EST (12/19) No Moon Set
Length of Visible Light 10h 41m
Length of Day
9h 44m
Waxing Crescent, 45% of the Moon is Illuminated
Dec 19
Waxing Crescent
Dec 20
First Quarter
Dec 28
Full
Jan 4
Last Quarter
Jan 11
New

Hourly Weather History & Observations

Time (EST) Temp. Windchill Dew Point Humidity Pressure Visibility Wind Dir Wind Speed Gust Speed Precip Events Conditions
12:53 AM 39.0 °F 35.7 °F 27.0 °F 62% 29.88 in 10.0 mi WNW 4.6 mph - N/A   Clear
1:53 AM 36.0 °F - 27.0 °F 70% 29.89 in 10.0 mi Calm Calm - N/A   Clear
2:53 AM 37.0 °F - 26.1 °F 65% 29.89 in 10.0 mi Calm Calm - N/A   Clear
3:53 AM 44.1 °F 41.5 °F 24.1 °F 45% 29.89 in 10.0 mi WSW 4.6 mph - N/A   Clear
4:53 AM 46.9 °F - 23.0 °F 39% 29.90 in 10.0 mi West 6.9 mph - N/A   Clear
5:53 AM 39.9 °F 36.7 °F 27.0 °F 60% 29.93 in 10.0 mi North 4.6 mph - N/A   Clear
6:53 AM 45.0 °F 42.6 °F 25.0 °F 46% 29.95 in 10.0 mi West 4.6 mph - N/A   Clear
7:53 AM 39.9 °F - 30.0 °F 68% 29.98 in 10.0 mi Calm Calm - N/A   Clear
8:53 AM 51.1 °F - 32.0 °F 48% 29.99 in 10.0 mi West 3.5 mph - N/A   Clear
9:53 AM 55.0 °F - 35.1 °F 47% 30.01 in 10.0 mi West 4.6 mph - N/A   Clear
10:53 AM 59.0 °F - 36.0 °F 42% 30.01 in 10.0 mi Calm Calm - N/A   Clear
11:53 AM 62.1 °F - 37.0 °F 39% 29.99 in 10.0 mi Variable 5.8 mph - N/A   Clear
12:53 PM 64.0 °F - 36.0 °F 35% 29.98 in 10.0 mi SW 6.9 mph - N/A   Clear
1:53 PM 64.9 °F - 35.1 °F 33% 29.96 in 10.0 mi Calm Calm - N/A   Clear
2:53 PM 64.0 °F - 36.0 °F 35% 29.97 in 10.0 mi SSW 6.9 mph - N/A   Clear
3:53 PM 64.0 °F - 36.0 °F 35% 29.97 in 10.0 mi SW 4.6 mph - N/A   Clear
4:53 PM 61.0 °F - 37.0 °F 41% 30.00 in 10.0 mi Calm Calm - N/A   Clear
5:53 PM 57.9 °F - 37.0 °F 46% 30.02 in 10.0 mi Calm Calm - N/A   Clear
6:53 PM 55.0 °F - 37.0 °F 51% 30.04 in 10.0 mi Calm Calm - N/A   Clear
7:53 PM 55.0 °F - 35.1 °F 47% 30.05 in 10.0 mi Calm Calm - N/A   Clear
8:53 PM 50.0 °F - 37.0 °F 61% 30.05 in 10.0 mi Calm Calm - N/A   Clear
9:53 PM 46.9 °F - 39.9 °F 77% 30.06 in 10.0 mi Calm Calm - N/A   Clear
10:53 PM 46.9 °F - 39.9 °F 77% 30.06 in 10.0 mi Calm Calm - N/A   Clear
11:53 PM 45.0 °F - 39.0 °F 80% 30.07 in 10.0 mi Calm Calm - N/A   Clear